RH
27 30 26 20 18 16 13 10 8 6 11 21 26 28 23 24 21 11 14 12 14 8 5 5 9 10 9 10 10 16 19 18 21 35 47 54 50 42 38 32 33 34 36 31 15
29 28 21 17 14 13 13 12 9 6 13 20 18 19 18 17 14 15 14 14 11 10 8 8 5 6 8 8 14 20 20 14 23 38 40 38 40 34 29 30 33 34 33 28 14
27 23 17 13 12 15 15 14 10 7 10 12 13 13 13 16 18 27 13 12 16 17 18 17 9 13 14 16 20 22 16 18 24 26 31 29 20 16 20 20 23 16 20 21 13
25 17 12 14 16 18 17 15 11 6 8 10 11 10 17 26 33 13 14 16 20 22 21 20 18 17 16 18 20 16 14 14 20 24 20 16 14 15 18 20 22 16 10 8 14
18 14 14 16 18 19 17 14 11 6 8 10 9 19 28 39 26 20 14 18 17 25 30 29 27 21 19 19 16 12 11 12 12 11 12 12 15 13 17 21 23 21 19 21 25
14 17 16 17 20 18 16 14 8 7 12 8 17 24 39 33 30 17 32 31 27 32 28 24 24 22 21 18 14 11 11 11 12 12 11 13 16 14 15 21 17 22 22 36 39
17 19 18 19 20 18 16 12 9 10 9 15 21 42 44 36 34 26 32 33 33 32 26 24 22 22 16 16 12 12 10 11 14 12 11 12 14 13 16 15 17 21 26 42 54
20 20 20 21 19 18 13 10 10 9 13 23 30 47 39 33 33 29 29 30 32 32 27 23 26 19 16 15 16 18 20 12 12 14 14 13 12 16 17 16 18 24 26 44 61
21 21 21 20 17 15 11 10 10 17 24 20 36 42 43 29 30 29 26 26 31 30 28 22 25 20 19 19 19 18 21 22 22 16 12 11 23 21 22 20 20 22 22 37 52
22 20 19 16 12 12 12 16 24 28 26 20 38 32 33 31 29 24 25 20 23 19 19 20 22 19 18 15 13 14 20 21 21 22 24 25 24 22 22 19 23 21 22 27 42
21 19 16 12 12 13 21 28 29 28 21 25 31 37 30 22 23 22 21 15 15 15 13 20 21 18 20 22 22 20 22 25 23 22 24 26 24 22 23 21 23 22 22 23 28
20 17 14 13 16 28 36 37 33 25 16 22 34 32 27 28 25 17 13 10 9 15 20 26 28 28 26 23 18 24 22 25 25 25 25 25 24 23 22 20 22 22 24 26 26
19 18 14 22 33 38 48 37 28 21 23 38 36 26 29 29 18 16 18 20 19 31 31 29 28 28 24 25 23 26 25 26 25 26 24 29 33 31 27 26 26 30 32 32 36
18 17 27 34 40 52 44 30 30 39 38 37 33 29 31 30 26 15 17 26 30 28 28 30 23 20 25 28 28 29 29 29 31 30 27 32 45 44 35 35 36 37 39 43 59
20 30 37 41 72 56 57 45 47 41 50 34 32 29 36 30 22 22 31 30 27 28 29 30 28 26 28 30 34 28 31 32 40 28 30 42 41 60 61 48 46 49 56 65 66
29 36 45 55 65 65 57 50 50 49 34 30 31 34 37 34 22 25 31 29 28 27 31 29 32 30 35 35 30 32 37 41 43 44 48 52 41 58 56 48 51 54 56 54 60
35 48 44 68 66 66 57 49 47 56 32 34 30 24 37 36 35 22 30 33 32 33 33 38 31 27 26 44 40 35 40 46 57 67 67 52 50 52 54 54 48 44 46 53 62
41 48 41 64 60 55 48 44 46 42 32 31 26 30 34 33 27 19 29 33 35 30 34 37 47 32 46 45 44 38 37 42 59 71 53 51 58 54 50 50 53 59 61 63 67
42 46 40 57 55 46 40 40 60 35 34 30 35 36 39 40 40 28 34 36 38 42 38 43 45 30 18 43 43 45 27 39 44 56 56 62 66 60 56 59 63 62 67 66 63
40 45 41 44 49 41 43 52 50 36 33 36 36 37 40 41 42 43 43 37 39 41 44 42 44 38 43 34 41 39 42 40 39 57 56 54 65 62 63 61 61 63 63 63 66
40 46 39 33 40 42 39 69 51 37 33 36 38 39 37 37 41 45 44 44 38 40 46 45 39 40 49 44 41 39 31 28 36 45 64 77 54 53 59 62 62 62 66 75 75
39 41 37 31 39 39 37 67 58 51 34 34 38 37 37 34 41 45 43 43 38 36 42 47 37 46 44 36 24 32 35 28 24 39 49 52 43 44 52 56 57 66 73 70 70
42 39 34 31 35 33 31 60 62 54 38 37 37 38 36 37 38 43 43 46 38 30 35 44 38 47 41 32 30 35 33 36 35 33 38 51 36 41 48 54 54 55 61 64 66
40 37 31 29 31 29 26 52 56 46 36 37 38 41 39 41 44 45 47 47 44 31 28 34 32 33 26 31 36 35 42 40 38 40 42 38 36 44 48 51 57 59 57 63 70
36 44 26 26 28 27 42 59 56 55 42 43 42 48 44 44 45 46 50 50 39 30 25 20 24 34 32 31 27 29 34 36 34 32 38 27 34 40 46 47 57 68 69 72 78
47 63 24 30 23 24 54 68 62 53 44 40 39 44 45 43 42 46 50 45 41 29 22 11 21 30 37 34 30 25 23 25 26 26 29 32 33 38 47 53 59 71 72 78 85
70 66 43 39 24 21 30 62 51 51 47 48 46 42 42 49 48 47 49 43 33 28 20 11 12 22 33 24 23 28 15 21 21 30 33 38 33 49 52 55 63 72 80 87 92
Wind_Speed
32 30 30 30 29 28 24 21 19 15 14 15 15 16 15 15 16 14 8 9 8 8 10 11 14 16 18 19 17 15 10 9 9 14 15 11 13 16 11 6 6 2 3 6 6
30 30 30 29 28 26 22 20 17 16 14 14 14 14 14 13 11 7 7 6 7 10 12 13 14 18 19 24 21 11 8 5 12 22 18 20 23 17 10 4 4 4 5 7 9
29 29 29 27 26 23 20 19 17 15 14 13 13 12 11 9 6 1 3 10 13 12 15 18 18 19 21 25 16 6 1 6 21 17 9 22 14 6 4 1 1 3 4 3 9
28 27 27 25 23 19 17 17 17 14 12 13 12 12 12 11 5 9 15 13 13 16 16 15 17 17 20 12 5 6 12 13 17 20 18 14 11 8 5 2 3 6 7 4 6
27 24 24 21 18 15 15 15 16 14 12 13 14 15 15 10 11 12 13 8 5 9 9 7 7 11 11 5 9 14 12 8 12 12 14 12 10 4 4 5 2 2 5 6 5
24 22 19 17 14 13 14 15 16 14 14 15 16 18 15 13 13 13 13 12 12 10 9 10 6 1 5 8 13 14 12 11 17 16 12 11 10 4 5 6 2 2 5 6 9
20 18 16 15 14 13 14 15 15 16 16 18 20 19 14 13 12 14 13 15 12 8 8 8 5 5 6 19 13 10 9 13 16 17 15 11 7 8 6 3 3 7 6 6 5
16 14 15 14 12 14 16 16 16 18 19 20 22 15 13 14 12 14 13 11 9 7 7 7 8 13 14 18 12 8 5 11 17 14 13 11 10 9 8 10 5 5 4 6 9
11 13 11 11 13 16 18 18 19 19 20 22 21 12 11 15 13 13 10 8 7 3 2 7 8 16 16 15 10 8 5 5 6 10 9 12 2 14 15 12 6 7 8 9 12
8 9 10 12 16 19 19 19 19 19 19 23 17 11 7 11 15 15 8 8 8 7 7 8 8 7 6 3 5 8 10 12 13 8 11 8 8 7 20 15 11 11 11 13 16
9 12 14 16 18 20 21 20 18 16 22 23 15 4 10 11 15 16 12 11 10 8 11 12 7 4 5 4 6 5 10 14 10 15 15 11 11 11 21 19 16 17 18 19 20
14 15 17 22 24 24 21 18 17 17 21 18 14 10 9 9 8 19 14 13 13 13 13 7 6 5 5 4 4 3 3 13 13 11 10 8 11 15 25 24 20 21 23 25 27
16 20 24 26 26 24 18 18 17 15 16 13 11 12 8 7 11 18 14 16 17 10 7 4 7 7 7 4 4 13 12 17 14 10 4 8 13 14 17 19 20 18 19 20 22
21 26 29 28 26 24 21 21 20 15 9 12 12 11 8 8 9 16 17 14 7 8 7 8 10 10 9 7 2 10 12 9 6 7 6 11 4 8 13 16 16 16 16 16 17
27 30 31 29 25 22 20 21 17 12 3 14 11 12 10 11 12 18 13 10 6 14 8 8 8 7 6 6 5 5 6 4 4 3 5 3 5 12 17 18 18 17 14 13 11
32 32 31 31 23 21 21 21 16 3 3 12 11 17 15 9 13 18 12 9 11 7 8 11 7 6 6 6 6 7 7 7 6 3 2 2 5 17 26 25 22 18 15 12 12
34 32 31 26 23 21 21 20 8 4 13 12 15 18 15 11 11 21 16 14 11 14 14 9 4 3 8 8 4 4 8 3 1 1 4 1 3 5 24 20 19 17 14 13 8
34 31 33 26 23 22 24 18 6 7 14 13 16 18 14 14 12 19 17 13 12 8 13 7 4 5 6 10 5 3 3 4 5 3 3 1 1 2 18 17 19 16 15 15 11
34 31 33 28 24 24 23 15 1 10 11 21 21 18 16 13 11 15 15 13 11 10 7 7 5 4 5 9 8 3 3 4 5 3 2 2 3 3 5 16 20 16 12 16 27
32 31 30 29 25 25 19 8 4 8 21 21 23 15 17 16 14 16 13 11 13 11 13 10 7 10 8 7 7 6 5 1 2 2 1 3 6 6 18 18 16 18 22 22 19
32 32 30 29 26 24 20 5 6 12 19 21 21 16 11 17 15 13 13 8 11 13 14 13 8 11 10 5 7 7 2 2 3 2 5 1 5 12 14 19 17 17 17 16 16
32 31 30 29 27 26 24 7 6 6 18 16 18 8 10 16 17 14 11 8 9 13 13 14 8 13 9 8 7 6 4 3 1 3 4 2 5 11 10 14 17 19 18 17 19
31 29 29 29 29 30 26 10 8 9 10 14 11 11 12 20 15 15 14 11 8 11 11 13 9 10 5 6 10 8 9 7 5 4 7 2 4 10 13 16 18 20 22 24 25
30 25 30 30 29 31 22 14 11 10 11 13 12 11 15 16 12 10 12 9 9 11 11 15 11 12 13 5 10 11 12 11 10 8 13 19 17 14 18 20 22 24 25 24 23
32 23 32 33 30 28 21 16 13 8 12 13 14 14 15 15 12 11 10 10 10 12 11 13 10 18 11 10 10 11 13 15 17 17 15 17 19 17 22 25 25 24 22 23 25
30 22 28 13 28 27 25 17 15 13 12 12 12 15 14 14 14 9 12 12 12 14 12 14 8 14 13 14 15 17 18 19 20 22 21 21 22 16 18 19 23 23 24 26 27
28 24 24 21 28 28 31 18 11 12 15 12 9 11 12 11 10 8 7 7 8 11 12 14 13 9 8 14 15 16 22 24 19 17 16 19 17 19 22 23 24 25 25 26 29
Wind_Direction
286 291 293 293 293 289 288 278 268 260 249 246 243 246 248 255 257 254 249 226 218 223 184 174 180 182 173 181 178 179 219 238 184 180 199 203 200 192 187 228 193 149 346 7 139
286 291 292 291 289 286 281 267 258 249 242 243 244 244 247 249 245 235 216 221 185 155 153 157 167 168 166 167 175 211 256 243 175 181 209 188 191 179 192 215 255 256 278 344 152
286 290 291 290 286 280 270 259 246 238 236 238 238 238 233 216 189 189 176 150 143 147 152 156 167 167 174 174 196 304 282 155 177 168 198 170 192 221 212 181 348 323 268 237 177
286 289 291 288 281 272 261 247 234 226 226 224 222 210 196 173 149 133 145 147 146 142 145 151 163 172 182 188 222 176 137 118 125 165 183 192 207 203 175 138 63 55 74 150 185
286 290 291 284 274 262 248 232 223 211 210 207 197 187 165 150 131 134 145 131 137 130 130 149 169 179 187 164 179 161 164 167 158 166 179 202 190 169 169 194 190 47 32 58 65
286 289 284 272 258 243 229 215 208 196 198 193 182 164 155 146 141 138 110 102 119 112 120 139 127 227 232 164 161 179 164 173 181 179 188 195 187 203 180 179 314 326 23 84 74
286 284 270 256 241 223 209 204 196 188 188 185 170 162 175 157 164 155 131 123 128 128 119 121 85 117 192 161 161 176 209 189 176 181 176 199 215 235 259 242 306 112 108 123 123
283 272 255 240 221 203 194 189 183 184 182 179 166 168 170 177 172 159 140 132 137 139 132 124 106 140 140 141 143 148 140 148 182 187 193 215 231 237 219 231 236 161 143 162 185
269 258 243 218 200 194 181 178 176 176 177 176 169 166 179 186 170 174 152 157 165 157 213 169 138 135 141 152 158 184 198 177 172 187 199 206 213 222 228 225 235 214 199 202 209
247 230 204 192 186 181 171 165 168 174 179 172 157 180 188 194 190 180 163 190 194 163 191 189 168 169 164 180 205 222 243 252 237 226 220 232 250 298 230 211 222 231 226 223 228
208 196 184 174 170 163 159 159 166 174 179 171 177 196 151 162 191 178 185 206 200 221 181 179 181 174 181 196 228 242 255 254 240 224 221 245 245 247 209 214 222 234 239 239 239
193 178 172 164 161 155 156 164 168 174 169 174 176 171 165 174 183 186 201 205 198 167 158 161 137 162 202 220 206 188 112 140 158 186 204 210 216 207 199 214 226 245 246 245 245
183 174 163 159 155 154 158 165 165 158 164 183 174 165 150 165 160 181 180 178 174 159 155 173 168 181 199 223 170 176 172 165 182 185 216 196 180 199 210 219 226 235 237 237 242
173 168 160 156 158 157 162 162 155 157 158 168 179 185 170 167 170 177 177 170 161 186 180 166 172 196 201 212 224 178 180 184 198 220 194 206 165 198 200 206 205 210 216 224 217
169 165 161 162 161 159 159 161 155 154 112 178 169 170 173 170 171 169 163 165 158 156 153 152 189 198 200 218 208 191 203 168 152 187 190 199 155 188 178 182 195 198 197 198 210
169 168 167 161 162 163 172 169 164 159 191 163 173 163 173 171 170 176 168 157 150 166 183 161 174 210 210 209 211 198 192 205 210 186 149 354 198 196 193 202 197 198 196 205 232
172 172 171 165 164 172 179 175 180 228 155 170 166 175 163 166 161 180 171 150 146 139 148 150 139 154 181 168 176 203 200 175 89 4 204 109 207 180 204 206 218 220 229 232 233
176 177 174 177 175 178 181 178 224 164 165 171 178 161 166 150 159 177 179 171 175 182 167 166 155 158 165 191 204 163 175 191 182 183 208 80 260 258 215 226 214 208 218 224 236
179 180 181 186 182 184 183 190 234 160 182 155 150 163 165 173 167 169 179 187 189 186 181 170 153 153 172 199 187 189 135 128 116 97 110 139 164 150 175 200 206 223 243 278 285
182 184 188 190 186 190 191 184 131 160 161 168 167 172 179 175 171 184 182 195 207 205 207 201 157 160 146 159 189 197 155 147 111 117 182 241 214 201 188 202 222 248 262 264 265
184 187 188 192 192 198 193 151 134 153 172 180 181 187 189 189 192 184 191 202 210 198 194 187 194 177 178 183 154 156 143 111 111 136 154 187 248 221 230 224 244 253 256 257 260
185 185 189 190 196 200 190 150 167 162 185 196 192 201 205 189 188 193 204 209 219 205 196 187 195 164 183 194 201 206 216 217 187 215 213 226 268 204 217 245 255 248 256 252 266
185 187 191 195 201 198 194 189 198 198 191 191 197 210 212 199 196 209 221 220 214 204 197 188 185 143 164 198 203 216 218 224 250 245 240 183 256 224 221 228 246 257 261 269 279
186 184 192 198 204 202 198 196 204 206 221 212 205 200 184 188 197 206 199 214 214 210 208 203 201 202 196 194 192 212 219 225 233 228 238 239 259 252 250 243 249 262 274 276 281
186 190 195 199 200 198 186 192 196 211 213 208 203 197 207 209 219 231 216 227 222 218 224 216 224 216 228 220 204 218 231 244 253 258 251 280 274 271 268 272 271 268 267 276 271
183 185 192 194 200 192 186 189 205 219 222 221 212 223 227 239 247 252 241 230 218 222 227 224 231 224 228 231 238 245 248 244 252 258 252 260 268 276 279 280 265 263 268 268 268
184 180 187 192 188 194 195 193 182 196 213 219 223 218 219 227 234 230 213 217 225 236 236 233 232 230 235 245 251 262 250 244 248 249 258 258 294 282 280 281 266 261 263 266 274